Content
SEND FEEDBACK

Daily
Averages
Monthly
Summary
United States of America

RAPID CITY, SOUTH DAKOTA


Home > North America > United States > South Dakota
Elevation: 3162 feet     Latitude: 44 03N     Longitude: 103 04W

WEATHER
 
SELECT A DAY
Number of Records: 203,244;   Date Range: 1/1/95 - 10/19/14
 
SHARE

PRINT THIS DATA

[ ← Previous Day ]
WEATHER ALMANAC - APRIL 10, 2014
[ Next Day → ]
[ °C ]   °F
Weather ElementAverageHighLow
Temperature49.3 °F60.1 °F (5:52 pm)34 °F (6:52 am)
Dewpoint26.8 °F33.1 °F (1:52 am)18 °F (10:52 am)
Humidity44.4 %67 % (6:52 am)23 % (10:52 am)
Barometer29.94 in30.00 in (6:52 am)29.89 in (3:52 pm)
Wind Speed5.5 mph11.5 mph (2:52 am)
Wind Gust18.4 mph (1:52 pm)
Weather ElementAverage
Visibility10 mi
Wind DirectionS (178.3 °)

Weather ElementTotal
Precipitation---
Heating Degree Days18 (Base 65)
Averaged from 23 records on April 10, 2014
WEATHER CONDITIONS BREAKOUT
WIND DIRECTION BREAKOUT
WEATHER BY HOUR - APRIL 10, 2014
[ °C ]   °F
Local TimeTemperatureDewpointHumidityBarometerVisibilityWind DirectionWind SpeedGust SpeedPrecipitationEventsConditions
1:52 AM45.0 °F33.1 °F63 %29.90 in10.0 miNNW (330°)9.2 mphPartly Cloudy
2:52 AM46.0 °F30.9 °F56 %29.91 in10.0 miNNW (340°)11.5 mphPartly Cloudy
3:52 AM44.1 °F27.0 °F51 %29.92 in10.0 miNNW (330°)10.4 mphMostly Cloudy
4:52 AM42.1 °F27.0 °F55 %29.94 in10.0 miNNW (330°)9.2 mphClear
5:52 AM41.0 °F26.1 °F55 %29.95 in10.0 miNorth (350°)8.1 mphClear
6:52 AM34.0 °F24.1 °F67 %30.00 in10.0 miWNW (300°)4.6 mphClear
7:52 AM44.6 °F26.6 °F49 %29.99 in10.0 miCalmClear
8:52 AM51.1 °F23.0 °F33 %29.99 in10.0 miCalmClear
9:52 AM54.0 °F19.0 °F25 %29.99 in10.0 miWest (260°)4.6 mphClear
10:52 AM55.9 °F18.0 °F23 %29.98 in10.0 miVariable3.5 mphClear
11:52 AM57.9 °F21.0 °F24 %29.94 in10.0 miSouth (170°)6.9 mphClear
12:52 PM57.0 °F23.0 °F27 %29.94 in10.0 miSSW (210°)3.5 mphPartly Cloudy
1:52 PM59.0 °F28.9 °F32 %29.92 in10.0 miSSE (150°)8.1 mph18.4 mphMostly Cloudy
2:52 PM59.0 °F30.0 °F33 %29.91 in10.0 miESE (120°)9.2 mphOvercast
3:52 PM59.0 °F30.0 °F33 %29.89 in10.0 miSE (140°)8.1 mphPartly Cloudy
4:52 PM57.9 °F28.9 °F33 %29.90 in10.0 miWSW (240°)5.8 mph0.00 inRainLight Rain
5:52 PM60.1 °F28.9 °F31 %29.89 in10.0 miCalm0.00 inPartly Cloudy
6:52 PM55.9 °F28.0 °F34 %29.92 in10.0 miNE (40°)4.6 mphClear
7:52 PM50.0 °F28.9 °F44 %29.91 in10.0 miSSE (160°)4.6 mphPartly Cloudy
8:52 PM43.0 °F28.9 °F58 %29.94 in10.0 miNNE (30°)4.6 mphClear
9:52 PM39.9 °F28.0 °F63 %29.96 in10.0 miCalmClear
10:52 PM39.0 °F28.0 °F65 %29.95 in10.0 miWNW (290°)4.6 mphClear
11:52 PM39.0 °F28.9 °F67 %29.95 in10.0 miNW (310°)5.8 mphClear
Hourly data recorded from KRAP, located miles away from Rapid City, South Dakota







STORIES FROM OUR PARTNERS